Simultaneous Nadir Overpasses (SNOs) Predictions

Prediction of SNOs between AQUA and METOP-A Satellite Orbit:

Table of predicted SNOs for the next 14.0 days since TLE Epoch: 7/4/2015
Index Date (AQUA) Time (AQUA) Lat,Lon (AQUA) SZA (AQUA ) Date (METOP-A) Time (METOP-A) Lat,Lon (METOP-A) SZA (METOP-A ) Distance(km) Time Diff (sec)
1 07/04/2015 05:56:40 -73.90, -94.95 128.95 07/04/2015 05:56:06 -73.90, -94.93 128.95 0.67 34
2 07/04/2015 06:46:09 73.96, 72.55 51.12 07/04/2015 06:46:45 73.94, 72.49 51.10 3.00 36
3 07/07/2015 01:30:54 -73.88, -28.47 128.70 07/07/2015 01:30:25 -73.91, -28.51 128.67 3.17 29
4 07/07/2015 02:20:24 74.00, 138.91 51.43 07/07/2015 02:21:03 73.99, 139.02 51.41 3.45 39
5 07/09/2015 21:05:09 -73.93, 37.86 128.33 07/09/2015 21:04:44 -73.91, 37.90 128.35 2.83 25
6 07/09/2015 21:54:38 74.00,-154.65 51.75 07/09/2015 21:55:22 73.98,-154.58 51.73 2.78 44
7 07/12/2015 16:39:21 -73.89, 104.38 127.99 07/12/2015 16:39:02 -73.90, 104.30 127.98 2.60 19
8 07/12/2015 17:28:50 73.97, -88.15 52.09 07/12/2015 17:29:40 73.97, -88.19 52.09 1.47 50
9 07/15/2015 11:23:58 73.33, 4.38 51.82 07/15/2015 11:22:51 73.28, 1.97 51.89 77.46 67
10 07/15/2015 12:13:35 -73.93, 170.74 127.53 07/15/2015 12:13:20 -73.94, 170.81 127.52 2.19 15
11 07/15/2015 13:03:04 74.01, -21.80 52.56 07/15/2015 13:03:58 74.01, -21.69 52.55 3.27 54




NCC Satellite Simultaneous Nadir Overpasses (SNOs) Prediction Service
